[[{"header":{"parameterUnit":"m.s-1","parameterCategory":2,"la1":30.2992,"la2":30.254,"lo1":-89.0895,"lo2":-89.0443,"dy":0.0025,"dx":0.0025,"nx":19,"ny":19,"refTime":"2026-04-16T21:00:00:Z","depth":"0","parameterNumber":2,"parameterNumberName":"U-component_of_CURRENTS"},"data":[0,0,0,-0.1009,-0.1011,-0.1092,-0.1092,-0.118,-0.1181,0,0,0,0,0,0,0,0,0,0,0,-0.097,-0.0971,-0.1009,-0.1011,-0.1091,-0.1092,-0.118,-0.1181,0,0,0,0,0,0,0,0,0,0,0,-0.097,-0.0971,-0.0971,-0.1011,-0.1091,-0.1092,-0.118,-0.1122,0,0,0,0,0,0,0,0,0,0,-0.1045,-0.1004,-0.097,-0.0971,-0.1012,-0.1091,-0.1092,-0.1119,-0.1126,-0.1141,0,-0.115,0,-0.1174,-0.1187,-0.1187,0,0,0,-0.1008,-0.0999,-0.1032,-0.0971,-0.1012,-0.1091,-0.1054,-0.1123,-0.113,-0.1149,-0.1151,-0.1155,-0.1175,-0.1188,-0.1188,-0.1279,-0.1279,0,0,-0.1003,-0.0976,-0.1027,-0.1036,-0.1029,-0.1052,-0.1057,-0.1127,-0.1126,-0.1151,-0.1157,-0.1177,-0.1188,-0.1189,-0.1278,-0.1279,0,0,0,-0.0993,-0.0973,-0.1004,-0.1032,-0.1052,-0.1054,-0.106,-0.1123,-0.1136,-0.1158,-0.1178,-0.1189,-0.119,-0.1278,-0.1278,-0.125,0,0,0,-0.099,-0.0968,-0.1002,-0.0986,-0.105,-0.1089,-0.1053,-0.1131,-0.114,-0.1177,-0.1189,-0.1191,-0.1278,-0.1278,-0.125,-0.1222,0,0,0,-0.0967,-0.0965,-0.0976,-0.0984,-0.1023,-0.1089,-0.1106,-0.1133,-0.1152,-0.1188,-0.1191,-0.1277,-0.1278,-0.125,-0.1222,-0.113,0,0,0,-0.0936,-0.0959,-0.0974,-0.1014,-0.1023,-0.1091,-0.1105,-0.1159,-0.1191,-0.1189,-0.1278,-0.1278,-0.125,-0.1223,-0.1132,-0.0842,-0.081,0,0,-0.0953,-0.096,-0.099,-0.1007,-0.1056,-0.108,-0.1129,-0.1177,-0.1206,-0.1252,-0.1254,-0.125,-0.1222,-0.113,-0.0889,-0.0854,0,0,0,-0.0989,-0.0996,-0.1022,-0.105,-0.1102,-0.1119,-0.1169,-0.1191,-0.1234,-0.123,-0.1274,-0.1258,-0.12,-0.1031,-0.1005,-0.0995,-0.1282,-0.1282,-0.1282,-0.0944,-0.0987,-0.1009,-0.1053,-0.1093,-0.115,-0.1177,-0.1212,-0.1246,-0.1262,-0.1253,-0.119,-0.1014,-0.099,-0.0987,-0.1284,-0.1283,-0.1283,-0.1283,-0.0939,-0.0943,-0.0977,-0.1013,-0.1042,-0.1077,-0.1157,-0.1188,-0.1199,-0.1249,-0.1193,-0.1034,-0.0958,-0.0966,-0.1282,-0.1282,-0.1282,-0.1282,-0.1283,-0.0894,-0.0894,-0.092,-0.0937,-0.095,-0.1016,-0.1017,-0.1109,-0.1146,-0.1135,-0.0891,-0.0888,-0.0871,-0.108,-0.108,-0.1079,-0.1079,-0.1079,-0.1078,-0.0824,-0.0849,-0.0829,-0.0858,-0.0837,-0.0862,-0.0926,-0.0898,-0.0814,-0.082,-0.0817,-0.0833,-0.1127,-0.1107,-0.107,-0.1072,-0.1073,-0.1074,-0.1074,-0.0769,-0.078,-0.0739,-0.0715,-0.0672,-0.0633,-0.0695,-0.0518,-0.0474,-0.0348,-0.0417,-0.0632,-0.0593,-0.0612,-0.058,-0.0409,-0.0409,-0.0409,-0.0409,-0.0709,-0.0722,-0.0631,-0.0559,-0.0501,-0.052,-0.0329,-0.0216,-0.0109,-0.006,-0.0149,-0.0154,-0.0181,-0.0125,-0.0155,-0.0117,0.0167,0.0168,0.0168,-0.0655,-0.0642,-0.0542,-0.0486,-0.0408,-0.0375,-0.0186,-0.0016,0.0159,0.0174,-0.0201,-0.0225,-0.0264,-0.0307,-0.025,-0.0292,-0.0243,0,0]},{"header":{"parameterUnit":"m.s-1","parameterCategory":2,"la1":30.2992,"la2":30.254,"lo1":-89.0895,"lo2":-89.0443,"dy":0.0025,"dx":0.0025,"nx":19,"ny":19,"refTime":"2026-04-16T21:00:00:Z","depth":"0","parameterNumber":3,"parameterNumberName":"V-component_of_CURRENTS"},"data":[0,0,0,0.0059,0.006,0.0087,0.0087,0.0154,0.0154,0,0,0,0,0,0,0,0,0,0,0,0.005,0.005,0.0059,0.006,0.0087,0.0087,0.0153,0.0154,0,0,0,0,0,0,0,0,0,0,0,0.005,0.005,0.005,0.006,0.0087,0.0087,0.0153,0.0126,0,0,0,0,0,0,0,0,0,0,0.0097,0.0078,0.005,0.005,0.006,0.0087,0.0087,0.0125,0.0128,0.0149,0,0.0149,0,0.0152,0.0159,0.0159,0,0,0,0.0065,0.0075,0.0085,0.005,0.006,0.0087,0.0076,0.0126,0.013,0.0153,0.015,0.0152,0.0153,0.0159,0.016,0.0031,0.0029,0,0,0.0064,0.0056,0.0082,0.0087,0.0063,0.0075,0.0077,0.0128,0.013,0.015,0.0154,0.0154,0.016,0.016,0.0033,0.0031,0,0,0,0.0056,0.0054,0.0062,0.0085,0.0086,0.0076,0.0078,0.0128,0.0131,0.0154,0.0155,0.016,0.0161,0.0035,0.0032,-0.0087,0,0,0,0.0055,0.0049,0.0061,0.0057,0.0085,0.0102,0.0076,0.0127,0.0133,0.0154,0.016,0.0162,0.0037,0.0034,-0.0079,-0.0084,0,0,0,0.005,0.0049,0.0051,0.0056,0.0066,0.0101,0.0107,0.0128,0.0133,0.0159,0.0162,0.0039,0.0034,-0.0072,-0.0074,0.0046,0,0,0,0.0042,0.0018,0.0051,0.0016,0.0065,0.0017,0.0107,0.01,0.0113,0.0161,0.0037,0.0033,-0.007,-0.0068,0.0048,0.0255,0.0259,0,0,0.0001,0.0013,-0.0012,0.0018,-0.0039,0.0014,-0.0083,-0.0007,0.0042,0.003,0.0027,-0.0082,-0.0073,0.0046,-0.0011,0.0002,0,0,0,-0.0033,-0.0048,-0.0061,-0.0082,-0.0098,-0.0148,-0.0104,-0.0106,-0.0126,0.0028,-0.0143,-0.0133,-0.0052,0.0075,0.0082,0.0197,0.0011,0.0012,0.0012,-0.0086,-0.0102,-0.0159,-0.0193,-0.0234,-0.0264,-0.0294,-0.0301,-0.0245,-0.0299,-0.0278,-0.0334,-0.0213,-0.0201,-0.0093,-0.0357,-0.0358,-0.0358,-0.0359,-0.0157,-0.0197,-0.0238,-0.0295,-0.0355,-0.0433,-0.049,-0.0469,-0.0458,-0.0462,-0.0375,-0.0121,-0.0198,-0.0086,-0.0367,-0.0366,-0.0365,-0.0364,-0.0363,-0.019,-0.0218,-0.0248,-0.0341,-0.0446,-0.0519,-0.0555,-0.0587,-0.052,-0.0503,-0.0206,-0.0201,-0.0039,-0.0413,-0.0412,-0.0412,-0.0412,-0.0411,-0.0411,-0.0206,-0.0247,-0.0292,-0.039,-0.0451,-0.0528,-0.0574,-0.051,-0.035,-0.0282,-0.0278,-0.0064,-0.0346,-0.0272,-0.0405,-0.0406,-0.0407,-0.0407,-0.0408,-0.0248,-0.025,-0.0317,-0.0365,-0.0473,-0.0473,-0.0497,-0.0253,-0.0141,0.002,0.0154,-0.0112,0.0,-0.0005,0.0078,0.0044,0.0044,0.0044,0.0045,-0.0261,-0.0273,-0.0331,-0.039,-0.0446,-0.0456,-0.0221,0.0003,0.0288,0.0424,0.0395,0.0399,0.0376,0.0508,0.0492,0.0583,0.0678,0.0679,0.068,-0.0283,-0.0299,-0.0329,-0.0378,-0.0439,-0.0368,-0.01,0.0237,0.06,0.0706,0.0504,0.0478,0.0474,0.043,0.0628,0.0596,0.0743,0,0]}],[{"header":{"parameterUnit":"m.s-1","parameterCategory":2,"la1":30.2992,"la2":30.254,"lo1":-89.0895,"lo2":-89.0443,"dy":0.0025,"dx":0.0025,"nx":19,"ny":19,"refTime":"2026-04-16T21:00:00:Z","depth":"2","parameterNumber":2,"parameterNumberName":"U-component_of_CURRENTS"},"data":[0,0,0,-0.1024,-0.1026,-0.1103,-0.1103,-0.121,-0.1211,0,0,0,0,0,0,0,0,0,0,0,-0.0989,-0.0989,-0.1024,-0.1026,-0.1103,-0.1103,-0.121,-0.1211,0,0,0,0,0,0,0,0,0,0,0,-0.0988,-0.0989,-0.0989,-0.1026,-0.1103,-0.1103,-0.121,-0.115,0,0,0,0,0,0,0,0,0,0,-0.1074,-0.1033,-0.0989,-0.0989,-0.1026,-0.1102,-0.1103,-0.1147,-0.1154,-0.1178,0,-0.1184,0,-0.1205,-0.1219,-0.1219,0,0,0,-0.1026,-0.1028,-0.1057,-0.0989,-0.1027,-0.1102,-0.1068,-0.115,-0.1158,-0.1187,-0.1186,-0.119,-0.1207,-0.1219,-0.122,-0.1349,-0.135,0,0,-0.1022,-0.0998,-0.1051,-0.1061,-0.1041,-0.1066,-0.107,-0.1155,-0.1156,-0.1187,-0.1193,-0.1209,-0.122,-0.1221,-0.1349,-0.1349,0,0,0,-0.1009,-0.0995,-0.1021,-0.1056,-0.1072,-0.1068,-0.1073,-0.1152,-0.1163,-0.1194,-0.121,-0.1221,-0.1222,-0.1348,-0.1349,-0.1408,0,0,0,-0.1007,-0.0988,-0.1019,-0.1005,-0.1071,-0.1111,-0.1068,-0.1156,-0.1167,-0.1209,-0.1221,-0.1223,-0.1347,-0.1349,-0.1405,-0.1334,0,0,0,-0.0986,-0.0986,-0.0994,-0.1004,-0.1039,-0.111,-0.1126,-0.1159,-0.1177,-0.1219,-0.1224,-0.1347,-0.1348,-0.1402,-0.1333,-0.1244,0,0,0,-0.096,-0.098,-0.0993,-0.103,-0.1038,-0.1116,-0.1125,-0.1184,-0.1221,-0.1221,-0.1348,-0.1349,-0.1401,-0.1332,-0.1245,-0.111,-0.1095,0,0,-0.0976,-0.0981,-0.1008,-0.1023,-0.1085,-0.1106,-0.1194,-0.1242,-0.1252,-0.1319,-0.1322,-0.1406,-0.1333,-0.1244,-0.1192,-0.1174,0,0,0,-0.1008,-0.1016,-0.1042,-0.1078,-0.1137,-0.119,-0.1245,-0.1293,-0.1366,-0.1281,-0.1418,-0.1368,-0.1311,-0.1233,-0.122,-0.1356,-0.1355,-0.1355,-0.1355,-0.0973,-0.1019,-0.1062,-0.1121,-0.1173,-0.1261,-0.1309,-0.1376,-0.1413,-0.1461,-0.1431,-0.141,-0.1336,-0.1322,-0.1496,-0.1497,-0.1497,-0.1497,-0.1497,-0.0979,-0.1001,-0.1066,-0.1121,-0.1194,-0.1265,-0.1383,-0.1423,-0.1449,-0.1505,-0.1449,-0.1317,-0.131,-0.1502,-0.1501,-0.15,-0.15,-0.15,-0.1499,-0.0939,-0.0958,-0.0999,-0.1078,-0.115,-0.1252,-0.1268,-0.1367,-0.1421,-0.1403,-0.1241,-0.1238,-0.1354,-0.137,-0.137,-0.1369,-0.1369,-0.1368,-0.1368,-0.0872,-0.092,-0.0941,-0.1026,-0.1056,-0.1109,-0.1184,-0.1171,-0.117,-0.1206,-0.1206,-0.1363,-0.1367,-0.1342,-0.1358,-0.136,-0.1361,-0.1362,-0.1363,-0.0815,-0.0829,-0.086,-0.088,-0.093,-0.0901,-0.0972,-0.0899,-0.0881,-0.0829,-0.1084,-0.1094,-0.1018,-0.1029,-0.0994,-0.0917,-0.0917,-0.0917,-0.0917,-0.0754,-0.077,-0.0774,-0.0767,-0.0776,-0.0788,-0.0659,-0.0669,-0.0733,-0.0826,-0.0831,-0.09,-0.0918,-0.0841,-0.0856,-0.082,-0.0698,-0.0698,-0.0698,-0.0704,-0.0715,-0.0688,-0.0693,-0.0686,-0.0645,-0.054,-0.0459,-0.0563,-0.0699,-0.089,-0.0883,-0.1002,-0.1025,-0.0921,-0.0939,-0.0887,0,0]},{"header":{"parameterUnit":"m.s-1","parameterCategory":2,"la1":30.2992,"la2":30.254,"lo1":-89.0895,"lo2":-89.0443,"dy":0.0025,"dx":0.0025,"nx":19,"ny":19,"refTime":"2026-04-16T21:00:00:Z","depth":"2","parameterNumber":3,"parameterNumberName":"V-component_of_CURRENTS"},"data":[0,0,0,-0.0043,-0.0043,-0.0013,-0.0013,0.0054,0.0055,0,0,0,0,0,0,0,0,0,0,0,-0.0054,-0.0053,-0.0043,-0.0043,-0.0013,-0.0013,0.0054,0.0055,0,0,0,0,0,0,0,0,0,0,0,-0.0054,-0.0054,-0.0053,-0.0043,-0.0013,-0.0013,0.0054,0.0026,0,0,0,0,0,0,0,0,0,0,-0.0006,-0.0025,-0.0054,-0.0053,-0.0043,-0.0013,-0.0013,0.0024,0.0028,0.0047,0,0.0046,0,0.005,0.0059,0.0059,0,0,0,-0.0036,-0.0028,-0.0018,-0.0053,-0.0043,-0.0013,-0.0024,0.0026,0.003,0.0051,0.0047,0.0049,0.0051,0.006,0.006,0.0125,0.0125,0,0,-0.0038,-0.0046,-0.0021,-0.0016,-0.004,-0.0026,-0.0024,0.0028,0.003,0.0047,0.0051,0.0052,0.006,0.0061,0.0124,0.0125,0,0,0,-0.0047,-0.0048,-0.004,-0.0019,-0.0017,-0.0025,-0.0023,0.0027,0.003,0.0052,0.0053,0.006,0.0061,0.0124,0.0125,-0.0082,0,0,0,-0.0048,-0.0054,-0.0041,-0.0046,-0.0018,0.0001,-0.0025,0.0026,0.0032,0.0052,0.0061,0.0062,0.0124,0.0124,-0.0077,-0.0166,0,0,0,-0.0054,-0.0054,-0.0052,-0.0046,-0.0036,0.0,0.0006,0.0028,0.0033,0.006,0.0062,0.0124,0.0124,-0.0073,-0.0156,-0.0099,0,0,0,-0.0061,-0.0085,-0.0053,-0.0083,-0.0037,-0.0048,0.0006,0.0007,0.0022,0.0061,0.0124,0.0125,-0.0071,-0.0151,-0.0096,-0.0004,-0.0013,0,0,-0.0101,-0.009,-0.0111,-0.0082,-0.0116,-0.0051,-0.0074,-0.0027,0.0043,0.011,0.0111,-0.0079,-0.0156,-0.0098,0.0025,0.0015,0,0,0,-0.0131,-0.0145,-0.0152,-0.016,-0.0148,-0.0144,-0.0072,-0.0078,-0.0056,0.0055,-0.001,-0.005,-0.0008,0.0057,0.005,0.0127,0.0127,0.0127,0.0127,-0.0185,-0.0189,-0.0224,-0.0213,-0.0218,-0.0199,-0.0219,-0.0187,-0.0109,-0.0132,-0.0169,-0.0201,-0.0135,-0.0139,-0.0109,-0.0109,-0.011,-0.0111,-0.0111,-0.0255,-0.0276,-0.0277,-0.0315,-0.0306,-0.0322,-0.035,-0.0343,-0.0341,-0.0296,-0.0243,-0.0104,-0.016,-0.0126,-0.0123,-0.0121,-0.012,-0.0119,-0.0118,-0.0291,-0.0301,-0.032,-0.0366,-0.0434,-0.0439,-0.0518,-0.0554,-0.0496,-0.0515,-0.0279,-0.0273,-0.0311,-0.0435,-0.0435,-0.0436,-0.0436,-0.0436,-0.0436,-0.0317,-0.0334,-0.0383,-0.0441,-0.0492,-0.0579,-0.0643,-0.0624,-0.0534,-0.0462,-0.0458,-0.0306,-0.0296,-0.0322,-0.0439,-0.0438,-0.0438,-0.0438,-0.0437,-0.0366,-0.0368,-0.0446,-0.0498,-0.0612,-0.0651,-0.0692,-0.057,-0.0507,-0.0422,-0.0376,-0.0377,-0.027,-0.026,-0.0279,-0.0378,-0.0378,-0.0378,-0.0378,-0.0388,-0.0398,-0.05,-0.0592,-0.067,-0.0697,-0.0586,-0.0448,-0.0337,-0.0266,-0.0271,-0.0221,-0.0225,-0.0111,-0.0104,-0.0117,-0.0175,-0.0174,-0.0174,-0.0417,-0.0442,-0.0519,-0.0601,-0.0703,-0.0667,-0.0532,-0.0332,-0.0156,-0.0168,-0.0257,-0.036,-0.0297,-0.03,-0.0126,-0.0115,-0.0137,0,0]}],[{"header":{"parameterUnit":"m.s-1","parameterCategory":2,"la1":30.2992,"la2":30.254,"lo1":-89.0895,"lo2":-89.0443,"dy":0.0025,"dx":0.0025,"nx":19,"ny":19,"refTime":"2026-04-16T21:00:00:Z","depth":"4","parameterNumber":2,"parameterNumberName":"U-component_of_CURRENTS"},"data":[0,0,0,-0.0872,-0.0874,-0.0986,-0.0987,-0.1108,-0.1109,0,0,0,0,0,0,0,0,0,0,0,-0.0832,-0.0832,-0.0872,-0.0874,-0.0986,-0.0987,-0.1108,-0.1109,0,0,0,0,0,0,0,0,0,0,0,-0.0831,-0.0832,-0.0833,-0.0875,-0.0986,-0.0987,-0.1107,-0.103,0,0,0,0,0,0,0,0,0,0,-0.0925,-0.089,-0.0832,-0.0833,-0.0875,-0.0986,-0.0987,-0.1027,-0.1035,-0.1048,0,-0.1062,0,-0.1085,-0.1116,-0.1116,0,0,0,-0.0882,-0.0883,-0.0911,-0.0833,-0.0876,-0.0986,-0.0938,-0.1032,-0.1041,-0.1059,-0.1064,-0.1069,-0.1087,-0.1116,-0.1117,-0.1211,-0.1212,0,0,-0.0876,-0.0857,-0.0904,-0.0916,-0.0901,-0.0935,-0.0942,-0.1038,-0.1046,-0.1064,-0.1072,-0.1089,-0.1117,-0.1118,-0.1211,-0.1212,0,0,0,-0.0853,-0.0853,-0.0879,-0.0911,-0.0932,-0.0938,-0.0946,-0.1042,-0.105,-0.1073,-0.1091,-0.1118,-0.1119,-0.1211,-0.1211,-0.1185,0,0,0,-0.085,-0.0839,-0.0876,-0.0866,-0.093,-0.0992,-0.0948,-0.1044,-0.1055,-0.109,-0.1118,-0.112,-0.1211,-0.1211,-0.1186,-0.1185,0,0,0,-0.0827,-0.0837,-0.0847,-0.0865,-0.091,-0.0991,-0.1005,-0.1047,-0.1065,-0.1116,-0.112,-0.121,-0.1211,-0.1186,-0.1185,-0.1195,0,0,0,-0.0807,-0.0828,-0.0847,-0.0885,-0.0908,-0.0989,-0.1005,-0.1077,-0.1124,-0.1118,-0.1211,-0.1211,-0.1186,-0.1185,-0.1195,-0.1036,0,0,0,-0.0821,-0.0829,-0.0854,-0.0874,-0.0942,-0.0975,-0.104,-0.1105,-0.1134,-0.1178,-0.1181,-0.1186,-0.1185,-0.1195,-0.1077,0,0,0,0,-0.0852,-0.0862,-0.089,-0.0934,-0.0995,-0.1042,-0.1102,-0.1121,-0.117,-0.1162,-0.1206,-0.1207,-0.1214,-0.1122,-0.1214,-0.1214,-0.1214,-0.1214,-0.1214,-0.0829,-0.0872,-0.0917,-0.0972,-0.1021,-0.1096,-0.1132,-0.1168,-0.1185,-0.12,-0.12,-0.1212,-0.1115,-0.1213,-0.1213,-0.1212,-0.1212,-0.1212,-0.1212,-0.0836,-0.0856,-0.0921,-0.0977,-0.1038,-0.1092,-0.1153,-0.1168,-0.1201,-0.1204,-0.1211,-0.1119,-0.121,-0.1211,-0.1211,-0.1211,-0.1211,-0.1212,-0.1212,-0.0801,-0.0817,-0.0867,-0.0946,-0.1016,-0.1084,-0.1108,-0.1155,-0.1189,-0.1198,-0.1108,-0.1208,-0.1194,-0.1197,-0.1197,-0.1197,-0.1197,-0.1197,-0.1197,-0.0736,-0.0788,-0.0826,-0.0914,-0.0965,-0.1017,-0.1086,-0.1091,-0.1136,-0.1078,-0.1193,-0.1208,-0.1208,-0.1195,-0.1197,-0.1197,-0.1197,-0.1197,-0.1197,-0.0676,-0.0705,-0.0752,-0.0804,-0.0911,-0.0934,-0.1015,-0.0983,-0.0986,-0.096,-0.102,-0.1028,-0.1029,-0.1034,-0.1014,-0.0963,-0.0961,-0.0959,0,-0.062,-0.0642,-0.0692,-0.0751,-0.0799,-0.088,-0.082,-0.0837,-0.0879,-0.0859,-0.1007,-0.1077,-0.1082,-0.1085,-0.1087,-0.1065,0,0,0,-0.0576,-0.0597,-0.0613,-0.0691,-0.0749,-0.075,-0.0794,-0.0755,-0.0889,-0.0811,-0.0908,-0.0922,-0.1065,-0.1199,-0.1221,-0.1222,-0.1202,0,0]},{"header":{"parameterUnit":"m.s-1","parameterCategory":2,"la1":30.2992,"la2":30.254,"lo1":-89.0895,"lo2":-89.0443,"dy":0.0025,"dx":0.0025,"nx":19,"ny":19,"refTime":"2026-04-16T21:00:00:Z","depth":"4","parameterNumber":3,"parameterNumberName":"V-component_of_CURRENTS"},"data":[0,0,0,-0.0033,-0.0033,-0.001,-0.001,0.0065,0.0066,0,0,0,0,0,0,0,0,0,0,0,-0.0041,-0.0041,-0.0033,-0.0033,-0.001,-0.001,0.0065,0.0066,0,0,0,0,0,0,0,0,0,0,0,-0.0041,-0.0041,-0.0041,-0.0033,-0.001,-0.001,0.0065,0.0038,0,0,0,0,0,0,0,0,0,0,0.0011,-0.0008,-0.0041,-0.0041,-0.0033,-0.001,-0.001,0.0036,0.004,0.0066,0,0.0064,0,0.0065,0.0072,0.0072,0,0,0,-0.0026,-0.0011,-0.0003,-0.0041,-0.0033,-0.001,-0.0018,0.0038,0.0042,0.0071,0.0065,0.0067,0.0066,0.0072,0.0072,0.0189,0.019,0,0,-0.0027,-0.0034,-0.0006,-0.0001,-0.0033,-0.0019,-0.0018,0.004,0.0042,0.0065,0.0069,0.0067,0.0073,0.0073,0.0188,0.0189,0,0,0,-0.0036,-0.0035,-0.003,-0.0004,-0.0005,-0.0019,-0.0017,0.0039,0.0041,0.007,0.0068,0.0073,0.0074,0.0188,0.0189,0.0169,0,0,0,-0.0036,-0.0041,-0.0031,-0.0035,-0.0006,0.0011,-0.0019,0.0037,0.0044,0.0068,0.0073,0.0075,0.0187,0.0188,0.0168,0.013,0,0,0,-0.0041,-0.0041,-0.0041,-0.0035,-0.0028,0.0009,0.0015,0.0038,0.0043,0.0072,0.0075,0.0186,0.0188,0.0167,0.013,0.0102,0,0,0,-0.0046,-0.0066,-0.0041,-0.0065,-0.0029,-0.002,0.0014,0.0022,0.0041,0.0074,0.0187,0.0188,0.0167,0.013,0.0102,0.0027,0,0,0,-0.0079,-0.0071,-0.0087,-0.0064,-0.0078,-0.0023,0.0011,0.0048,0.0084,0.0171,0.0173,0.0169,0.013,0.0102,0.0123,0,0,0,0,-0.0103,-0.0113,-0.0115,-0.0114,-0.0091,-0.0031,0.0018,0.0072,0.0151,0.0103,0.0207,0.0183,0.0165,0.0126,0.0196,0.0196,0.0196,0.0196,0.0195,-0.0148,-0.0143,-0.0162,-0.014,-0.0111,-0.0028,0.0029,0.0124,0.0156,0.0206,0.0197,0.02,0.0164,0.0247,0.0247,0.0247,0.0247,0.0247,0.0247,-0.0201,-0.0212,-0.0181,-0.02,-0.0121,-0.0069,0.0074,0.0121,0.0201,0.024,0.0224,0.0147,0.0246,0.0246,0.0246,0.0247,0.0247,0.0247,0.0247,-0.0232,-0.0234,-0.0247,-0.0244,-0.0184,-0.0087,-0.0023,0.0075,0.0158,0.0161,0.0102,0.0176,0.0141,0.0145,0.0145,0.0145,0.0144,0.0144,0.0144,-0.0256,-0.0264,-0.0298,-0.0282,-0.0264,-0.0205,-0.0089,-0.0053,0.0029,0.0056,0.0134,0.0164,0.0168,0.0137,0.014,0.0141,0.0141,0.0142,0.0142,-0.0296,-0.0304,-0.0356,-0.0366,-0.0335,-0.0283,-0.0198,-0.0144,-0.0126,-0.0106,0.0008,0.0016,0.0002,0.0009,-0.0029,-0.0074,-0.0075,-0.0076,0,-0.0318,-0.0328,-0.0398,-0.0416,-0.0401,-0.0317,-0.0302,-0.0256,-0.0171,-0.0162,-0.0119,0.0009,0.0015,0.0,0.0005,-0.004,0,0,0,-0.0342,-0.0365,-0.0414,-0.0442,-0.0418,-0.0343,-0.0291,-0.0282,-0.0172,-0.0193,-0.0102,-0.0095,0.0004,0.0128,0.0125,0.0129,0.0078,0,0]}]]